{"data":{"norad_id":59212,"intl_designator":"2024-046M","name":"STARLINK-31492","alt_names":[],"object_type":"PAYLOAD","status":"ACTIVE","operator":null,"country":"US","launch_date":"2024-03-11","launch_site_code":"AFWTR","launch_vehicle":null,"mission":null,"orbit_class":"UNKNOWN","rcs_meters":null,"size_class":null,"mass_kg":null,"dimensions":null,"purposes":["comms"],"wikipedia_slug":null,"has_3d_model":false,"image_url":null,"decayed_at":null,"tle_current":{"epoch":"2026-05-25T00:45:57.551904Z","epoch_age_seconds":68462,"freshness":"FRESH","line1":"1 59212U 24046M   26145.03191611  .00000738  00000+0  37063-4 0  9995","line2":"2 59212  53.1596 161.0312 0001183  86.4406 273.6730 15.30192517124723","mean_motion":15.30192517,"eccentricity":0.0001183,"inclination_deg":53.1596,"raan_deg":161.0312,"arg_perigee_deg":86.4406,"mean_anomaly_deg":273.673,"bstar":3.7063e-5,"rev_number":12472,"period_min":94.105805903637,"perigee_km":474.42665820657,"apogee_km":476.04816659254,"semimajor_km":6853.3744123996,"source":"CELESTRAK","updated_at":"2026-05-25T13:38:18.866296Z"}}}